,,PA_Meas_PMT16A,,PR_Meas_QMR101_102,,RH_Meas_QMH101,,SR_Meas_QMS101,,TA_Meas_QMH101,,GenWind,,GenWind,
time,status,PA,status,PR,status,RH,status,SR,status,TA,status,DirAvg,status,SpdAvg,
2015-02-04, 08:12:04,VALID,920.502,VALID,0,VALID,87.9056,VALID,99.3831,VALID,20.3058,VALID,179,VALID,1.21914,
2015-02-04, 08:25:04,VALID,920.647,VALID,0,VALID,87.2271,VALID,78.0023,VALID,20.5024,VALID,131,VALID,0,
2015-02-04, 08:26:04,VALID,920.638,VALID,0,VALID,87.3034,VALID,78.6469,VALID,20.5219,VALID,127,VALID,0,
2015-02-04, 08:27:04,VALID,920.661,VALID,0,VALID,87.1128,VALID,80.2585,VALID,20.5024,VALID,135,VALID,0.955469,
2015-02-04, 08:28:04,VALID,920.641,VALID,0,VALID,87.4025,VALID,84.019,VALID,20.5219,VALID,130,VALID,0.247656,
2015-02-04, 08:29:04,VALID,920.644,VALID,0,VALID,87.4406,VALID,91.6473,VALID,20.5009,VALID,150,VALID,0.178125,
2015-02-04, 08:30:04,VALID,920.668,VALID,0,VALID,87.7684,VALID,99.2756,VALID,20.5414,VALID,119,VALID,0.0929687,
2015-02-04, 08:31:04,VALID,920.676,VALID,0,VALID,87.6845,VALID,104.003,VALID,20.5414,VALID,123,VALID,0.00820312,
2015-02-04, 08:32:04,VALID,920.688,VALID,0,VALID,86.9603,VALID,109.483,VALID,20.5204,VALID,123,VALID,1.45703,
2015-02-04, 08:33:04,VALID,920.674,VALID,0,VALID,87.2881,VALID,113.028,VALID,20.5804,VALID,124,VALID,1.02578,
2015-02-04, 08:34:04,VALID,920.663,VALID,0,VALID,86.7545,VALID,115.499,VALID,20.5804,VALID,134,VALID,2.04336,
2015-02-04, 08:35:04,VALID,920.695,VALID,0,VALID,87.2195,VALID,115.929,VALID,20.5999,VALID,96,VALID,0.735156,
2015-02-04, 08:36:04,VALID,920.695,VALID,0,VALID,87.189,VALID,175.451,VALID,20.5999,VALID,131,VALID,1.68594,
2015-02-04, 08:37:04,VALID,920.694,VALID,0,VALID,86.48,VALID,135.268,VALID,20.639,VALID,139,VALID,2.02734,
2015-02-04, 08:38:04,VALID,920.716,VALID,0,VALID,86.8688,VALID,145.046,VALID,20.678,VALID,133,VALID,1.16055,
2015-02-04, 08:39:04,VALID,920.727,VALID,0,VALID,87.0061,VALID,151.277,VALID,20.7365,VALID,144,VALID,0.848828,
2015-02-04, 08:40:04,VALID,920.707,VALID,0,VALID,86.8917,VALID,154.285,VALID,20.7739,VALID,158,VALID,0.89375,
2015-02-04, 08:41:04,VALID,920.708,VALID,0,VALID,86.4572,VALID,157.401,VALID,20.8746,VALID,139,VALID,1.17266,
2015-02-04, 08:42:04,VALID,920.704,VALID,0,VALID,86.3047,VALID,159.98,VALID,20.8925,VALID,137,VALID,1.15703,
2015-02-04, 08:43:04,VALID,920.715,VALID,0,VALID,86.4038,VALID,169.542,VALID,20.912,VALID,128,VALID,1.50273,
2015-02-04, 08:44:04,VALID,920.716,VALID,0,VALID,86.724,VALID,170.509,VALID,20.912,VALID,120,VALID,1.30078,
2015-02-04, 08:45:04,VALID,920.737,VALID,0,VALID,87.0365,VALID,177.815,VALID,20.9316,VALID,114,VALID,0.558203,
2015-02-04, 08:46:04,VALID,920.72,VALID,0,VALID,87.3567,VALID,197.477,VALID,20.9722,VALID,141,VALID,0,
2015-02-04, 08:47:04,VALID,920.715,VALID,0,VALID,87.8446,VALID,207.254,VALID,20.9901,VALID,114,VALID,0.478125,
2015-02-04, 08:48:04,VALID,920.76,VALID,0,VALID,87.7303,VALID,211.981,VALID,21.0259,VALID,141,VALID,0.372266,
2015-02-04, 08:49:04,VALID,920.732,VALID,0,VALID,86.198,VALID,207.039,VALID,21.0681,VALID,91,VALID,1.07969,
2015-02-04, 08:50:04,VALID,920.745,VALID,0,VALID,86.1598,VALID,203.171,VALID,21.1445,VALID,164,VALID,0.158203,
2015-02-04, 08:51:04,VALID,920.751,VALID,0,VALID,85.8854,VALID,202.527,VALID,21.2648,VALID,149,VALID,0,
2015-02-04, 08:52:04,VALID,920.738,VALID,0,VALID,84.3074,VALID,184.262,VALID,21.2616,VALID,189,VALID,0.357422,
2015-02-04, 08:53:04,VALID,920.727,VALID,0,VALID,84.5284,VALID,166.856,VALID,21.3006,VALID,144,VALID,0.298828,
2015-02-04, 08:54:04,VALID,920.727,VALID,0,VALID,84.6123,VALID,146.12,VALID,21.3412,VALID,141,VALID,0,
2015-02-04, 08:55:04,VALID,920.723,VALID,0,VALID,84.8791,VALID,147.732,VALID,21.4193,VALID,149,VALID,0.438672,
2015-02-04, 08:56:04,VALID,920.708,VALID,0,VALID,84.6428,VALID,161.914,VALID,21.3803,VALID,141,VALID,1.31875,
2015-02-04, 08:57:04,VALID,920.683,VALID,0,VALID,85.0316,VALID,179.427,VALID,21.3217,VALID,135,VALID,0.142188,
2015-02-04, 08:58:04,VALID,920.664,VALID,0,VALID,85.2069,VALID,187.592,VALID,21.3217,VALID,125,VALID,1.0582,
2015-02-04, 08:59:04,VALID,920.685,VALID,0,VALID,84.8562,VALID,182.22,VALID,21.2827,VALID,126,VALID,1.06719,
2015-02-04, 09:00:04,VALID,920.692,VALID,0,VALID,85.1307,VALID,178.245,VALID,21.2437,VALID,134,VALID,0.944922,
2015-02-04, 09:01:04,VALID,920.691,VALID,0,VALID,85.024,VALID,193.716,VALID,21.2616,VALID,145,VALID,1.14492,
2015-02-04, 09:02:04,VALID,920.688,VALID,0,VALID,85.8015,VALID,222.081,VALID,21.3217,VALID,113,VALID,0.741406,
2015-02-04, 09:03:04,VALID,920.71,VALID,0,VALID,86.3276,VALID,238.949,VALID,21.3981,VALID,119,VALID,0.213281,
2015-02-04, 09:04:04,VALID,920.718,VALID,0,VALID,85.4432,VALID,239.594,VALID,21.4583,VALID,158,VALID,0.571094,
2015-02-04, 09:05:04,VALID,920.712,VALID,0,VALID,83.2401,VALID,357.779,VALID,21.4973,VALID,159,VALID,1.78437,
2015-02-04, 09:06:04,VALID,920.666,VALID,0,VALID,82.4091,VALID,229.602,VALID,21.5347,VALID,159,VALID,1.96328,
2015-02-04, 09:07:04,VALID,920.682,VALID,0,VALID,82.2338,VALID,221.866,VALID,21.6144,VALID,138,VALID,1.62148,
2015-02-04, 09:08:04,VALID,920.695,VALID,0,VALID,83.0495,VALID,272.148,VALID,21.6534,VALID,176,VALID,0,
2015-02-04, 09:09:04,VALID,920.712,VALID,0,VALID,82.9961,VALID,262.909,VALID,21.7883,VALID,136,VALID,1.125,
2015-02-04, 09:10:04,VALID,920.723,VALID,0,VALID,82.1194,VALID,252.487,VALID,21.8469,VALID,148,VALID,1.22969,
2015-02-04, 09:11:04,VALID,920.712,VALID,0,VALID,82.7217,VALID,229.172,VALID,21.9054,VALID,126,VALID,0,
2015-02-04, 09:12:04,VALID,920.712,VALID,0,VALID,81.38,VALID,219.287,VALID,21.9461,VALID,129,VALID,0.0574219,
2015-02-04, 09:13:04,VALID,920.768,VALID,0,VALID,82.1271,VALID,229.817,VALID,21.964,VALID,118,VALID,0.554688,
2015-02-04, 09:14:04,VALID,920.741,VALID,0,VALID,82.3253,VALID,237.23,VALID,22.0225,VALID,141,VALID,0,
2015-02-04, 09:15:04,VALID,920.787,VALID,0,VALID,81.6163,VALID,229.279,VALID,22.0615,VALID,124,VALID,0.291797,
2015-02-04, 09:16:04,VALID,920.784,VALID,0,VALID,81.9136,VALID,221.221,VALID,22.042,VALID,120,VALID,0.116797,
2015-02-04, 09:17:04,VALID,920.749,VALID,0,VALID,80.4347,VALID,209.833,VALID,22.0615,VALID,124,VALID,0,
2015-02-04, 09:18:04,VALID,920.757,VALID,0,VALID,81.4791,VALID,210.155,VALID,22.1396,VALID,124,VALID,0,
2015-02-04, 09:19:04,VALID,920.788,VALID,0,VALID,80.793,VALID,218.106,VALID,22.2176,VALID,124,VALID,0,
2015-02-04, 09:20:04,VALID,920.775,VALID,0,VALID,80.1907,VALID,217.783,VALID,22.2957,VALID,159,VALID,0,
2015-02-04, 09:21:04,VALID,920.766,VALID,0,VALID,78.5745,VALID,222.618,VALID,22.2567,VALID,138,VALID,0.0558594,
2015-02-04, 09:22:04,VALID,920.786,VALID,0,VALID,79.0091,VALID,242.495,VALID,22.1786,VALID,128,VALID,1.27617,
2015-02-04, 09:23:04,VALID,920.746,VALID,0,VALID,78.2925,VALID,226.593,VALID,22.1201,VALID,109,VALID,1.93555,
2015-02-04, 09:24:04,VALID,920.786,VALID,0,VALID,79.4055,VALID,216.709,VALID,22.042,VALID,125,VALID,1.09805,
2015-02-04, 09:25:04,VALID,920.773,VALID,0,VALID,79.7409,VALID,234.544,VALID,22.0013,VALID,122,VALID,2.5043,
2015-02-04, 09:26:04,VALID,920.776,VALID,0,VALID,80.5643,VALID,244.751,VALID,22.003,VALID,162,VALID,1.53945,
2015-02-04, 09:27:04,VALID,920.75,VALID,0,VALID,79.314,VALID,229.387,VALID,22.0225,VALID,126,VALID,1.52773,
2015-02-04, 09:28:04,VALID,920.799,VALID,0,VALID,78.9176,VALID,233.577,VALID,21.9428,VALID,139,VALID,2.48008,
2015-02-04, 09:29:04,VALID,920.814,VALID,0,VALID,79.5351,VALID,305.133,VALID,21.9233,VALID,114,VALID,1.65625,
2015-02-04, 09:30:04,VALID,920.798,VALID,0,VALID,79.3293,VALID,707.393,VALID,21.9038,VALID,124,VALID,2.43711,
2015-02-04, 09:31:04,VALID,920.787,VALID,0,VALID,80.8463,VALID,751.121,VALID,22.0598,VALID,103,VALID,0.385938,
2015-02-04, 09:32:04,VALID,920.796,VALID,0,VALID,78.1705,VALID,579,VALID,22.255,VALID,148,VALID,1.6832,
2015-02-04, 09:33:04,VALID,920.806,VALID,0,VALID,77.431,VALID,315.984,VALID,22.4696,VALID,137,VALID,2.21406,
2015-02-04, 09:34:04,VALID,920.773,VALID,0,VALID,76.0969,VALID,306.744,VALID,22.4501,VALID,129,VALID,1.99883,
2015-02-04, 09:35:04,VALID,920.788,VALID,0,VALID,77.5301,VALID,322.109,VALID,22.372,VALID,104,VALID,0.946484,
2015-02-04, 09:36:04,VALID,920.769,VALID,0,VALID,78.2086,VALID,305.563,VALID,22.333,VALID,149,VALID,0.346484,
2015-02-04, 09:37:04,VALID,920.726,VALID,0,VALID,76.5848,VALID,302.339,VALID,22.3933,VALID,120,VALID,1.81406,
2015-02-04, 09:38:04,VALID,920.745,VALID,0,VALID,78.0638,VALID,304.918,VALID,22.4128,VALID,132,VALID,0,
2015-02-04, 09:39:04,VALID,920.715,VALID,0,VALID,77.2557,VALID,318.456,VALID,22.4306,VALID,136,VALID,0.755078,
2015-02-04, 09:40:04,VALID,920.744,VALID,0,VALID,77.614,VALID,292.455,VALID,22.4696,VALID,62,VALID,0.0289063,
2015-02-04, 09:41:04,VALID,920.753,VALID,0,VALID,76.6153,VALID,252.809,VALID,22.5477,VALID,110,VALID,2.06328,
2015-02-04, 09:42:04,VALID,920.752,VALID,0,VALID,76.8974,VALID,246.47,VALID,22.4484,VALID,103,VALID,0.576563,
2015-02-04, 09:43:04,VALID,920.735,VALID,0,VALID,75.6853,VALID,236.585,VALID,22.4289,VALID,114,VALID,0,
2015-02-04, 09:44:04,VALID,920.736,VALID,0,VALID,76.6001,VALID,227.775,VALID,22.5281,VALID,112,VALID,0,
2015-02-04, 09:45:04,VALID,920.76,VALID,0,VALID,76.4705,VALID,214.238,VALID,22.6843,VALID,108,VALID,0,
2015-02-04, 09:46:04,VALID,920.748,VALID,0,VALID,74.6332,VALID,196.832,VALID,22.6452,VALID,163,VALID,0.152734,
2015-02-04, 09:47:04,VALID,920.729,VALID,0,VALID,75.5099,VALID,183.187,VALID,22.663,VALID,148,VALID,0,
2015-02-04, 09:48:04,VALID,920.748,VALID,0,VALID,74.3283,VALID,178.675,VALID,22.663,VALID,148,VALID,0,
2015-02-04, 09:49:04,VALID,920.756,VALID,0,VALID,75.5176,VALID,168.253,VALID,22.6825,VALID,99,VALID,0.201953,
2015-02-04, 09:50:04,VALID,920.737,VALID,0,VALID,74.374,VALID,166.534,VALID,22.5086,VALID,119,VALID,0.213281,
2015-02-04, 09:51:04,VALID,920.768,VALID,0,VALID,75.2736,VALID,173.947,VALID,22.4306,VALID,120,VALID,1.81602,
2015-02-04, 09:52:04,VALID,920.762,VALID,0,VALID,75.2736,VALID,212.841,VALID,22.2745,VALID,127,VALID,2.94297,
2015-02-04, 09:53:04,VALID,920.792,VALID,0,VALID,76.8974,VALID,211.337,VALID,22.2354,VALID,126,VALID,0.0886719,
2015-02-04, 09:54:04,VALID,920.784,VALID,0,VALID,76.379,VALID,253.239,VALID,22.2567,VALID,118,VALID,0.980469,
2015-02-04, 09:55:04,VALID,920.726,VALID,0,VALID,74.1149,VALID,232.395,VALID,22.2745,VALID,81,VALID,1.51719,
2015-02-04, 09:56:04,VALID,920.757,VALID,0,VALID,75.6243,VALID,205.857,VALID,22.3347,VALID,62,VALID,1.48594,
2015-02-04, 09:57:04,VALID,920.775,VALID,0,VALID,76.0969,VALID,204.461,VALID,22.3916,VALID,96,VALID,0.751953,
2015-02-04, 09:58:04,VALID,920.796,VALID,0,VALID,74.7476,VALID,228.85,VALID,22.4518,VALID,73,VALID,1.81875,
2015-02-04, 09:59:04,VALID,920.788,VALID,0,VALID,73.7947,VALID,282.355,VALID,22.4713,VALID,83,VALID,0.152734,
2015-02-04, 10:00:04,VALID,920.781,VALID,0,VALID,74.9763,VALID,315.447,VALID,22.5281,VALID,102,VALID,0,
2015-02-04, 10:01:04,VALID,920.789,VALID,0,VALID,75.1974,VALID,310.935,VALID,22.6843,VALID,99,VALID,0,
2015-02-04, 10:02:04,VALID,920.84,VALID,0,VALID,74.2292,VALID,315.662,VALID,22.8209,VALID,102,VALID,0,
2015-02-04, 10:03:04,VALID,920.819,VALID,0,VALID,74.2063,VALID,301.695,VALID,22.9185,VALID,102,VALID,0,
2015-02-04, 10:04:04,VALID,920.788,VALID,0,VALID,73.5278,VALID,293.314,VALID,23.0356,VALID,92,VALID,0,
2015-02-04, 10:05:04,VALID,920.809,VALID,0,VALID,71.744,VALID,305.563,VALID,23.0373,VALID,87,VALID,1.73555,
2015-02-04, 10:06:04,VALID,920.864,VALID,0,VALID,72.1861,VALID,306.207,VALID,22.9185,VALID,102,VALID,1.97187,
2015-02-04, 10:07:04,VALID,920.818,VALID,0,VALID,71.378,VALID,302.662,VALID,22.8404,VALID,116,VALID,1.59297,
2015-02-04, 10:08:04,VALID,920.845,VALID,0,VALID,74.2063,VALID,305.885,VALID,22.7623,VALID,97,VALID,1.44727,
2015-02-04, 10:09:04,VALID,920.835,VALID,0,VALID,73.1543,VALID,330.167,VALID,22.7428,VALID,84,VALID,1.75195,
2015-02-04, 10:10:04,VALID,920.827,VALID,0,VALID,72.7045,VALID,318.67,VALID,22.7428,VALID,90,VALID,1.41953,
2015-02-04, 10:11:04,VALID,920.883,VALID,0,VALID,72.8417,VALID,311.687,VALID,22.7818,VALID,105,VALID,1.41484,
2015-02-04, 10:12:04,VALID,920.888,VALID,0,VALID,72.7274,VALID,296.215,VALID,22.8014,VALID,117,VALID,1.54805,
2015-02-04, 10:13:04,VALID,920.912,VALID,0,VALID,72.2242,VALID,289.017,VALID,22.8599,VALID,104,VALID,0,
2015-02-04, 10:14:04,VALID,920.875,VALID,0,VALID,71.2789,VALID,314.373,VALID,22.9185,VALID,76,VALID,2.50312,
2015-02-04, 10:15:04,VALID,920.941,VALID,0,VALID,72.4987,VALID,340.266,VALID,22.9575,VALID,135,VALID,0.36875,
2015-02-04, 10:16:04,VALID,920.932,VALID,0,VALID,73.0171,VALID,308.893,VALID,23.0356,VALID,139,VALID,0,
2015-02-04, 10:17:04,VALID,920.922,VALID,0,VALID,73.1543,VALID,291.703,VALID,23.1331,VALID,135,VALID,0,
2015-02-04, 10:18:04,VALID,920.915,VALID,0,VALID,73.8023,VALID,288.05,VALID,23.1917,VALID,114,VALID,0.00703125,
2015-02-04, 10:19:04,VALID,920.901,VALID,0,VALID,72.0946,VALID,283,VALID,23.2307,VALID,115,VALID,0,
2015-02-04, 10:20:04,VALID,920.94,VALID,0,VALID,73.6651,VALID,271.181,VALID,23.229,VALID,140,VALID,0.0234375,
2015-02-04, 10:21:04,VALID,920.929,VALID,0,VALID,73.0171,VALID,269.355,VALID,23.4064,VALID,81,VALID,0,
2015-02-04, 10:22:04,VALID,920.93,VALID,0,VALID,70.3717,VALID,286.975,VALID,23.4241,VALID,111,VALID,0.464844,
2015-02-04, 10:23:04,VALID,920.918,VALID,0,VALID,71.6601,VALID,278.058,VALID,23.4046,VALID,113,VALID,0.0046875,
2015-02-04, 10:24:04,VALID,920.911,VALID,0,VALID,70.5242,VALID,282.785,VALID,23.4046,VALID,112,VALID,0.185937,
2015-02-04, 10:25:04,VALID,920.922,VALID,0,VALID,72.796,VALID,435.996,VALID,23.465,VALID,102,VALID,0.557422,
2015-02-04, 10:26:04,VALID,920.933,VALID,0,VALID,70.0058,VALID,411.607,VALID,23.3851,VALID,117,VALID,2.77578,
2015-02-04, 10:27:04,VALID,920.948,VALID,0,VALID,71.9727,VALID,446.525,VALID,23.4454,VALID,103,VALID,0.103516,
2015-02-04, 10:28:04,VALID,920.912,VALID,0,VALID,69.6475,VALID,330.382,VALID,23.5022,VALID,99,VALID,1.89063,
2015-02-04, 10:29:04,VALID,920.94,VALID,0,VALID,70.8673,VALID,363.151,VALID,23.4632,VALID,77,VALID,1.81094,
2015-02-04, 10:30:04,VALID,920.866,VALID,0,VALID,68.4583,VALID,372.069,VALID,23.5022,VALID,9,VALID,1.48047,
2015-02-04, 10:31:04,VALID,920.923,VALID,0,VALID,70.8596,VALID,413.434,VALID,23.6584,VALID,44,VALID,0.641406,
2015-02-04, 10:32:04,VALID,920.944,VALID,0,VALID,69.556,VALID,331.349,VALID,23.6584,VALID,115,VALID,1.71328,
2015-02-04, 10:33:04,VALID,920.912,VALID,0,VALID,69.7466,VALID,294.604,VALID,23.5608,VALID,120,VALID,2.78281,
2015-02-04, 10:34:04,VALID,920.898,VALID,0,VALID,68.9767,VALID,304.488,VALID,23.4241,VALID,76,VALID,2.6,
2015-02-04, 10:35:04,VALID,920.919,VALID,0,VALID,70.4022,VALID,332.853,VALID,23.3461,VALID,106,VALID,1.81719,
2015-02-04, 10:36:04,VALID,920.937,VALID,0,VALID,71.6906,VALID,354.771,VALID,23.3461,VALID,74,VALID,1.12578,
2015-02-04, 10:37:04,VALID,920.953,VALID,0,VALID,71.4848,VALID,389.152,VALID,23.268,VALID,85,VALID,1.45352,
2015-02-04, 10:38:04,VALID,920.952,VALID,0,VALID,72.2395,VALID,380.342,VALID,23.2875,VALID,91,VALID,1.61641,
2015-02-04, 10:39:04,VALID,920.901,VALID,0,VALID,70.1583,VALID,379.912,VALID,23.4046,VALID,98,VALID,1.51055,
2015-02-04, 10:40:04,VALID,920.952,VALID,0,VALID,71.378,VALID,372.928,VALID,23.4437,VALID,103,VALID,2.39023,
2015-02-04, 10:41:04,VALID,920.945,VALID,0,VALID,70.4556,VALID,408.599,VALID,23.4827,VALID,31,VALID,1.38594,
2015-02-04, 10:42:04,VALID,920.867,VALID,0,VALID,68.3592,VALID,400.755,VALID,23.5785,VALID,83,VALID,2.04219,
2015-02-04, 10:43:04,VALID,920.87,VALID,0,VALID,69.6856,VALID,376.259,VALID,23.6584,VALID,72,VALID,4.80156,
2015-02-04, 10:44:04,VALID,920.884,VALID,0,VALID,68.7403,VALID,329.737,VALID,23.6193,VALID,75,VALID,2.5918,
2015-02-04, 10:45:04,VALID,920.875,VALID,0,VALID,69.2816,VALID,336.935,VALID,23.6566,VALID,132,VALID,2.32344,
2015-02-04, 10:46:04,VALID,920.884,VALID,0,VALID,69.2892,VALID,361.862,VALID,23.6584,VALID,91,VALID,1.53672,
2015-02-04, 10:47:04,VALID,920.842,VALID,0,VALID,66.1179,VALID,384.639,VALID,23.6974,VALID,70,VALID,3.23789,
2015-02-04, 10:48:04,VALID,920.833,VALID,0,VALID,67.452,VALID,461.03,VALID,23.8145,VALID,57,VALID,3.59648,
2015-02-04, 10:49:04,VALID,920.861,VALID,0,VALID,67.8636,VALID,444.484,VALID,23.9121,VALID,112,VALID,1.63555,
2015-02-04, 10:50:04,VALID,920.852,VALID,0,VALID,68.3439,VALID,540.536,VALID,24.0683,VALID,77,VALID,1.74414,
2015-02-04, 10:51:04,VALID,920.908,VALID,0,VALID,68.1152,VALID,646.259,VALID,24.2635,VALID,93,VALID,1.34453,
2015-02-04, 10:52:04,VALID,920.883,VALID,0,VALID,65.8358,VALID,385.714,VALID,24.2635,VALID,127,VALID,1.90859,
2015-02-04, 10:53:04,VALID,920.898,VALID,0,VALID,69.091,VALID,471.129,VALID,24.3026,VALID,125,VALID,0.137891,
2015-02-04, 10:54:04,VALID,920.913,VALID,0,VALID,65.9273,VALID,335.861,VALID,24.3611,VALID,99,VALID,0.0410156,
2015-02-04, 10:55:04,VALID,920.898,VALID,0,VALID,67.1775,VALID,311.15,VALID,24.3806,VALID,73,VALID,2.6293,
2015-02-04, 10:56:04,VALID,920.857,VALID,0,VALID,65.7748,VALID,338.117,VALID,24.3416,VALID,115,VALID,1.18789,
2015-02-04, 10:57:04,VALID,920.9,VALID,0,VALID,65.0811,VALID,910.456,VALID,24.2654,VALID,96,VALID,1.10234,
2015-02-04, 10:58:04,VALID,920.951,VALID,0,VALID,66.8726,VALID,335.861,VALID,24.3221,VALID,108,VALID,1.51328,
2015-02-04, 10:59:04,VALID,920.957,VALID,0,VALID,64.5475,VALID,354.771,VALID,24.3416,VALID,92,VALID,1.92461,
2015-02-04, 11:00:04,VALID,920.927,VALID,0,VALID,66.0416,VALID,810.536,VALID,24.2049,VALID,94,VALID,2.00039,
2015-02-04, 11:01:04,VALID,920.888,VALID,0,VALID,62.9999,VALID,861.033,VALID,24.1269,VALID,84,VALID,2.35078,
2015-02-04, 11:02:04,VALID,920.892,VALID,0,VALID,65.3403,VALID,996.839,VALID,24.1641,VALID,111,VALID,0.0191406,
2015-02-04, 11:03:04,VALID,920.891,VALID,0,VALID,65.6147,VALID,535.702,VALID,24.3593,VALID,167,VALID,0.0140625,
2015-02-04, 11:04:04,VALID,920.845,VALID,0,VALID,65.0049,VALID,392.483,VALID,24.5545,VALID,161,VALID,0.165234,
2015-02-04, 11:05:04,VALID,920.858,VALID,0,VALID,65.8434,VALID,377.226,VALID,24.5545,VALID,150,VALID,1.77813,
2015-02-04, 11:06:04,VALID,920.833,VALID,0,VALID,63.9223,VALID,370.242,VALID,24.535,VALID,64,VALID,0.794141,
2015-02-04, 11:07:04,VALID,920.857,VALID,0,VALID,65.0735,VALID,428.69,VALID,24.574,VALID,54,VALID,0,
2015-02-04, 11:08:04,VALID,920.787,VALID,0,VALID,65.6224,VALID,342.737,VALID,24.6326,VALID,47,VALID,2.47773,
2015-02-04, 11:09:04,VALID,920.834,VALID,0,VALID,66.5067,VALID,324.58,VALID,24.5564,VALID,87,VALID,0.937109,
2015-02-04, 11:10:04,VALID,920.813,VALID,0,VALID,66.1255,VALID,311.902,VALID,24.4587,VALID,162,VALID,0.0949219,
2015-02-04, 11:11:04,VALID,920.834,VALID,0,VALID,67.0098,VALID,299.224,VALID,24.4587,VALID,136,VALID,0.0628906,
2015-02-04, 11:12:04,VALID,920.845,VALID,0,VALID,67.1623,VALID,306.207,VALID,24.4783,VALID,122,VALID,0.336328,
2015-02-04, 11:13:04,VALID,920.823,VALID,0,VALID,64.0977,VALID,342.952,VALID,24.5173,VALID,69,VALID,0.219922,
2015-02-04, 11:14:04,VALID,920.812,VALID,0,VALID,66.5219,VALID,432.988,VALID,24.4392,VALID,55,VALID,2.04922,
2015-02-04, 11:15:04,VALID,920.806,VALID,0,VALID,63.3201,VALID,871.133,VALID,24.3416,VALID,103,VALID,1.82031,
2015-02-04, 11:16:04,VALID,920.768,VALID,0,VALID,65.104,VALID,578.463,VALID,24.3026,VALID,41,VALID,1.29336,
2015-02-04, 11:17:04,VALID,920.778,VALID,0,VALID,64.6237,VALID,402.367,VALID,24.5173,VALID,74,VALID,0.370703,
2015-02-04, 11:18:04,VALID,920.733,VALID,0,VALID,62.9389,VALID,316.414,VALID,24.4959,VALID,41,VALID,0.569141,
2015-02-04, 11:19:04,VALID,920.761,VALID,0,VALID,63.9223,VALID,311.579,VALID,24.5368,VALID,41,VALID,0,
2015-02-04, 11:20:04,VALID,920.737,VALID,0,VALID,64.9286,VALID,330.167,VALID,24.5155,VALID,161,VALID,0.76875,
2015-02-04, 11:21:04,VALID,920.75,VALID,0,VALID,67.0784,VALID,343.597,VALID,24.535,VALID,54,VALID,0.662109,
2015-02-04, 11:22:04,VALID,920.714,VALID,0,VALID,65.7825,VALID,341.341,VALID,24.654,VALID,64,VALID,1.06875,
2015-02-04, 11:23:04,VALID,920.731,VALID,0,VALID,65.4851,VALID,332.96,VALID,24.4569,VALID,168,VALID,0.478125,
2015-02-04, 11:24:04,VALID,920.712,VALID,0,VALID,65.9578,VALID,340.803,VALID,24.3221,VALID,142,VALID,1.33203,
2015-02-04, 11:25:04,VALID,920.683,VALID,0,VALID,65.8434,VALID,417.624,VALID,24.3221,VALID,167,VALID,0.0628906,
2015-02-04, 11:26:04,VALID,920.7,VALID,0,VALID,66.6515,VALID,343.597,VALID,24.3788,VALID,41,VALID,0.632031,
2015-02-04, 11:27:04,VALID,920.656,VALID,0,VALID,66.9641,VALID,302.447,VALID,24.5173,VALID,133,VALID,0.369141,
2015-02-04, 11:28:04,VALID,920.675,VALID,0,VALID,66.5753,VALID,265.702,VALID,24.4569,VALID,115,VALID,1.04531,
2015-02-04, 11:29:04,VALID,920.667,VALID,0,VALID,66.0569,VALID,258.289,VALID,24.3398,VALID,108,VALID,0.129688,
2015-02-04, 11:30:04,VALID,920.601,VALID,0,VALID,66.6363,VALID,444.591,VALID,24.2617,VALID,104,VALID,0.127734,
2015-02-04, 11:31:04,VALID,920.593,VALID,0,VALID,65.3632,VALID,294.389,VALID,24.3202,VALID,184,VALID,0.0195313,
2015-02-04, 11:32:04,VALID,920.629,VALID,0,VALID,65.8739,VALID,928.614,VALID,24.4197,VALID,177,VALID,0.00234375,
2015-02-04, 11:33:04,VALID,920.648,VALID,0,VALID,65.3403,VALID,965.359,VALID,24.654,VALID,98,VALID,0.0140625,
2015-02-04, 11:34:04,VALID,920.652,VALID,0,VALID,65.5233,VALID,402.367,VALID,24.9274,VALID,89,VALID,1.66094,
2015-02-04, 11:35:04,VALID,920.662,VALID,0,VALID,63.9986,VALID,686.979,VALID,24.9469,VALID,79,VALID,0.810938,
2015-02-04, 11:36:04,VALID,920.597,VALID,0,VALID,62.8169,VALID,412.574,VALID,24.9255,VALID,72,VALID,1.81758,
2015-02-04, 11:37:04,VALID,920.617,VALID,0,VALID,64.9058,VALID,352.622,VALID,24.8864,VALID,78,VALID,1.32617,
2015-02-04, 11:38:04,VALID,920.638,VALID,0,VALID,66.8726,VALID,271.074,VALID,24.9645,VALID,106,VALID,0,
2015-02-04, 11:39:04,VALID,920.606,VALID,0,VALID,62.8169,VALID,325.654,VALID,24.7869,VALID,124,VALID,0.423828,
2015-02-04, 11:40:04,VALID,920.607,VALID,0,VALID,64.9058,VALID,843.735,VALID,24.6326,VALID,163,VALID,1.06133,
2015-02-04, 11:41:04,VALID,920.584,VALID,0,VALID,66.2856,VALID,864.579,VALID,24.6521,VALID,130,VALID,2.58203,
2015-02-04, 11:42:04,VALID,920.607,VALID,0,VALID,67.7569,VALID,361.002,VALID,24.6912,VALID,116,VALID,1.77617,
2015-02-04, 11:43:04,VALID,920.553,VALID,0,VALID,65.5919,VALID,912.175,VALID,24.865,VALID,109,VALID,1.77617,
2015-02-04, 11:44:04,VALID,920.537,VALID,0,VALID,63.869,VALID,860.389,VALID,24.8864,VALID,85,VALID,2.40039,
2015-02-04, 11:45:04,VALID,920.476,VALID,0,VALID,68.2067,VALID,361.325,VALID,24.984,VALID,73,VALID,1.25547,
2015-02-04, 11:46:04,VALID,920.548,VALID,0,VALID,65.9426,VALID,377.871,VALID,24.7693,VALID,131,VALID,0.640625,
2015-02-04, 11:47:04,VALID,920.492,VALID,0,VALID,67.4977,VALID,311.257,VALID,24.7126,VALID,125,VALID,0.0417969,
2015-02-04, 11:48:04,VALID,920.496,VALID,0,VALID,66.278,VALID,288.157,VALID,24.6326,VALID,74,VALID,3.32969,
2015-02-04, 11:49:04,VALID,920.461,VALID,0,VALID,66.4457,VALID,275.694,VALID,24.4569,VALID,101,VALID,1.15039,
2015-02-04, 11:50:04,VALID,920.469,VALID,0,VALID,66.4991,VALID,272.578,VALID,24.3398,VALID,87,VALID,2.00625,
2015-02-04, 11:51:04,VALID,920.541,VALID,0,VALID,66.9565,VALID,283.537,VALID,24.2226,VALID,103,VALID,2.78594,
2015-02-04, 11:52:04,VALID,920.427,VALID,0,VALID,68.7251,VALID,303.521,VALID,24.086,VALID,76,VALID,2.09258,
2015-02-04, 11:53:04,VALID,920.414,VALID,0,VALID,69.8,VALID,325.224,VALID,24.0665,VALID,86,VALID,0.0292969,
2015-02-04, 11:54:04,VALID,920.421,VALID,0,VALID,68.3668,VALID,384.317,VALID,24.0646,VALID,117,VALID,2.02617,
2015-02-04, 11:55:04,VALID,920.422,VALID,0,VALID,70.5547,VALID,342.737,VALID,24.0256,VALID,122,VALID,2.95508,
2015-02-04, 11:56:04,VALID,920.449,VALID,0,VALID,69.6552,VALID,342.415,VALID,23.9866,VALID,84,VALID,1.6168,
2015-02-04, 11:57:04,VALID,920.385,VALID,0,VALID,68.5574,VALID,349.613,VALID,23.9493,VALID,115,VALID,2.64805,
2015-02-04, 11:58:04,VALID,920.401,VALID,0,VALID,68.3668,VALID,352.837,VALID,23.8713,VALID,85,VALID,1.29805,
2015-02-04, 11:59:04,VALID,920.368,VALID,0,VALID,66.8802,VALID,636.804,VALID,23.8908,VALID,60,VALID,3.38594,